Regional Weather Roundup
Issued by NWS Charleston, WV

Home | Current Version | Previous Version | Graphics & Text | Print | Product List | Glossary On
Versions: 1 2 3 4 5 6 7 8 9 10 11 12 13 14 15 16 17 18 19 20 21 22 23 24 25 26 27 28 29 30 31 32 33 34 35 36 37 38 39 40 41 42 43 44 45 46 47 48 49 50
000
ASUS41 KRLX 060310
RWRRLX
West Virginia Regional Weather Roundup
National Weather Service Charleston WV
1000 PM EST FRI FEB 05 2016

Note: "fair" indicates few or no clouds below 12,000 feet with no
significant weather and/or obstructions to visibility.

WVZ003-060400-
Northern Panhandle of West Virginia

CITY           SKY/WX    TMP DP  RH WIND       PRES   REMARKS
WHEELING         N/A     30  15  53 S6        30.34S
$$

WVZ009-060400-
Northwest West Virginia

CITY           SKY/WX    TMP DP  RH WIND       PRES   REMARKS
PARKERSBURG      N/A     30  17  58 S3        30.39F
$$

WVZ006-060400-
Western West Virginia

CITY           SKY/WX    TMP DP  RH WIND       PRES   REMARKS
HUNTINGTON       N/A     31  17  56 CALM      30.38R
$$

WVZ015-060400-
West Central West Virginia

CITY           SKY/WX    TMP DP  RH WIND       PRES   REMARKS
CHARLESTON       N/A     29  18  63 CALM      30.38S
$$

WVZ022-031-060400-
North Central West Virginia

CITY           SKY/WX    TMP DP  RH WIND       PRES   REMARKS
CLARKSBURG       N/A     27  17  66 CALM      30.36S
MORGANTOWN       N/A     27  15  61 S3        30.36F
$$

WVZ025-035-042-045-060400-
Southern West Virginia

CITY           SKY/WX    TMP DP  RH WIND       PRES   REMARKS
BECKLEY          N/A     24  14  65 S6        30.32F
LOGAN            N/A     32  14  47 CALM      30.35F
BLUEFIELD        N/A     25  10  53 SW3       30.31F
LEWISBURG        N/A     28  17  65 CALM      30.34R
$$

WVZ047-060400-
Northern Mountains of West Virginia

CITY           SKY/WX    TMP DP  RH WIND       PRES   REMARKS
ELKINS           N/A     21  15  78 CALM      30.33F
$$

WVZ052-060400-
Eastern Panhandle of West Virginia

CITY           SKY/WX    TMP DP  RH WIND       PRES   REMARKS
MARTINSBURG      N/A     25  16  68 CALM      30.37S
PETERSBURG       N/A     28  19  70 CALM      30.38S
$$



USA.gov is the U.S. government's official web portal to all federal, state and local government web resources and services.